User: anonymous   Login
Location: Les Coudrans
(46.1056°N, 1.1158°W)
Time: 17:26:01
(UTC+00:00)
Language:

Helios 1A Rocket - Orbit

View from above orbital plane
View from above orbital plane
View from above satellite
View from above satellite

Ground track
Ground track

The orbit data is extracted from the following two-line orbital elements,

1 23608U 95033D   21129.20869534 -.00000267  00000-0 -17023-4 0  9995
2 23608  98.2963 167.2782 0015003 243.4497 116.5186 14.97672525400193
Epoch (UTC): 09 May 2021 05:00:31
Eccentricity: 0.0015003
inclination: 98.2963°
perigee height: 563 km
apogee height: 584 km
right ascension of ascending node: 167.2782°
argument of perigee: 243.4497°
revolutions per day: 14.97672525
mean anomaly at epoch: 116.5186°
orbit number at epoch: 40019

The dashed part of the orbit path shows where the satellite is in the earth's shadow,  

DLR